Location: Ammerl�gen
(47.2167°N, 9.6000°E)
Time: 20:16:33
(UTC+00:00)

DMSP 5D-2 F13 DEB - Pass Details

Date: 30 October 2021
Orbit: 758 x 780 km, 98.7° (Epoch: 03 December)

Event Time Altitude Azimuth Distance (km) Brightness Sun altitude
Exits shadow 19:14:11 27° 345° (NNW) 1,423 ? -32.0°
Drops below altitude 10° 19:16:28 10° 345° (NNW) 2,299 ? -32.3°
Sets 19:18:46 0° 346° (NNW) 3,229 ? -32.7°
